RH
37 45 56 67 72 75 80 89 94 90 87 80 68 65 66 53 45 46 46 44 40 36 31 31 30 28 36 40 40 41 40 42 48 49 65 71 66 74 73 74 80 81 82 84 81 82 86 88 86 81 78 79 82 81 76 77 79 78 80 83 86 89 89 92 94 89 85 85 88 85 86 88 88 89 87 87 86 89 92 92 89 88 88 86 85 86 86 83 81 80 80 84 83 84 84 86 89
44 53 61 63 66 77 90 93 93 94 85 78 72 62 55 44 43 47 45 43 39 35 31 31 29 30 36 37 35 40 42 42 44 49 56 60 68 72 70 76 73 70 74 81 83 85 87 87 88 85 84 83 85 86 83 85 86 85 86 87 87 87 87 89 91 90 91 89 87 86 87 89 87 87 84 85 87 90 92 91 90 92 89 87 87 86 84 80 83 84 81 84 82 81 83 85 89
50 55 56 60 74 88 96 93 94 97 82 76 77 55 44 47 47 47 41 39 37 31 31 30 30 32 36 40 38 41 44 39 40 49 53 58 71 72 68 66 60 63 69 75 80 85 85 85 90 87 87 86 85 86 85 86 85 86 86 87 87 87 88 89 91 91 93 93 90 89 89 88 87 87 83 84 89 90 91 91 92 92 86 85 87 87 85 82 85 86 82 83 84 84 85 85 88
52 56 56 66 88 96 96 96 95 94 80 69 72 59 47 51 50 45 40 37 33 29 32 35 36 33 37 44 38 40 42 38 41 47 52 55 65 68 62 56 55 62 65 69 77 85 84 83 88 86 87 84 81 81 80 80 78 82 85 86 88 89 92 90 91 91 93 94 91 92 90 87 86 84 84 86 89 90 92 89 88 88 84 86 88 88 89 86 83 86 86 85 87 87 86 87 87
58 63 65 75 92 95 98 99 89 87 87 70 63 67 54 48 49 43 39 35 30 32 35 36 38 34 34 39 36 40 40 38 40 42 49 51 54 59 54 52 57 63 67 69 76 86 83 80 83 83 83 78 76 77 77 78 77 81 84 86 88 90 91 89 91 91 91 93 92 91 87 83 82 82 85 90 91 92 91 87 86 87 84 83 85 89 90 87 85 87 88 86 88 90 89 87 83
63 71 74 81 91 93 97 95 86 86 90 75 64 65 51 43 46 41 38 35 32 33 34 35 35 33 32 31 30 34 33 36 38 39 47 49 49 51 50 54 61 65 67 67 75 86 82 77 78 79 79 75 75 78 78 79 78 82 87 87 88 86 86 87 90 89 90 94 93 88 84 83 82 83 88 90 93 93 91 88 88 89 82 75 81 90 91 87 87 89 88 87 89 89 90 87 81
61 78 86 85 92 95 96 92 88 90 83 78 73 58 45 43 41 41 41 38 37 35 33 34 31 34 36 32 31 30 30 35 36 39 45 47 48 49 51 55 59 60 61 66 78 85 81 77 77 77 76 74 75 78 78 78 78 83 88 89 89 85 81 84 85 85 89 93 92 87 86 88 87 90 92 91 94 91 90 90 89 88 78 75 80 86 88 87 88 89 89 88 89 88 87 83 78
53 74 92 87 92 96 93 90 88 89 80 78 72 49 42 44 41 42 43 41 41 36 33 31 29 38 38 32 37 33 31 34 36 41 44 45 46 47 49 52 53 55 62 74 82 80 78 77 77 76 73 73 74 76 77 80 83 86 88 90 91 85 81 84 85 85 87 88 91 91 90 93 94 94 94 94 95 90 89 89 89 87 79 78 81 82 84 87 89 88 88 88 86 84 80 77 74
54 71 89 86 91 93 85 86 89 89 82 78 65 46 44 43 42 45 44 43 41 36 33 30 29 39 39 35 39 34 32 37 39 42 42 44 45 45 48 50 50 54 64 77 84 79 76 77 75 74 72 72 75 80 83 84 86 88 90 92 91 86 84 88 89 89 89 90 91 90 91 93 95 93 92 94 95 92 91 88 88 88 83 82 84 86 87 87 89 87 85 83 80 76 71 68 65
71 81 88 85 88 91 87 87 91 90 83 77 60 46 45 42 43 46 45 44 40 37 32 29 33 39 40 40 41 35 36 38 39 41 42 43 44 47 50 49 48 54 65 76 85 83 80 79 74 72 73 75 82 90 89 84 83 86 89 90 91 90 91 93 93 92 92 96 93 90 92 93 95 93 91 92 92 91 91 90 89 89 90 90 87 88 89 85 86 85 83 79 75 70 61 56 54
72 85 88 85 88 92 88 84 89 88 79 77 65 49 45 42 44 46 45 45 41 38 33 32 37 39 39 42 41 36 36 38 38 40 42 42 45 49 48 44 47 57 68 77 86 86 84 79 75 76 79 79 85 92 87 84 85 86 88 89 93 94 93 93 93 91 89 96 95 93 93 93 96 92 89 90 89 87 88 90 88 90 95 95 87 86 86 82 82 81 82 80 72 61 54 50 49
55 80 89 86 92 90 79 79 89 87 80 82 74 60 49 43 46 47 47 46 42 37 32 33 36 36 41 44 39 35 35 37 39 40 42 42 45 47 44 43 51 62 70 78 85 87 85 81 80 83 85 85 85 88 86 87 89 89 91 91 95 95 92 90 92 91 90 97 96 93 92 92 94 91 89 91 89 87 87 88 89 91 95 92 83 82 82 78 79 77 78 78 66 54 50 49 50
51 75 87 87 88 85 78 78 85 84 85 83 73 65 57 53 49 46 46 43 43 41 34 31 32 35 41 42 36 34 34 36 40 42 43 42 45 44 44 47 55 65 72 77 81 86 86 83 85 85 89 93 89 87 86 88 89 88 90 91 94 93 90 88 90 92 94 99 95 91 93 92 92 91 91 91 90 90 89 86 89 91 91 89 82 79 77 74 76 75 73 71 60 51 51 53 54
47 59 79 90 81 81 82 79 80 80 84 78 69 66 64 65 54 41 42 44 45 43 33 27 29 35 39 39 37 36 35 37 40 42 42 42 44 44 46 50 56 67 73 74 79 85 85 82 82 82 88 95 93 91 90 88 86 87 88 90 91 90 89 87 89 92 95 96 91 91 95 94 92 92 94 92 90 92 90 86 88 88 87 90 86 75 72 73 73 73 72 67 57 51 53 55 57
40 47 76 89 77 81 80 76 75 74 82 75 67 66 64 65 54 40 41 46 43 34 29 27 27 34 37 37 38 35 34 37 39 42 41 41 43 44 47 49 57 69 74 74 78 83 86 87 83 80 87 95 95 95 94 90 89 90 89 89 90 90 89 89 91 93 93 90 89 94 95 92 91 91 92 92 91 92 90 88 88 88 88 93 91 81 81 84 76 70 71 65 56 52 54 55 56
33 40 72 81 75 83 72 70 70 67 77 72 66 67 64 61 54 47 41 40 37 29 31 31 27 30 31 31 34 32 34 36 38 41 41 41 43 43 45 49 58 67 73 77 80 81 84 87 83 83 90 91 88 90 94 94 93 92 90 87 86 88 87 89 93 93 92 89 89 92 92 92 93 93 92 90 91 92 89 87 87 87 91 94 94 91 94 94 79 67 66 62 57 55 55 56 56
29 42 76 74 71 82 69 64 64 63 70 69 69 68 66 68 65 55 40 36 37 34 34 32 26 24 25 28 31 32 34 37 38 41 41 43 43 42 43 49 61 67 71 76 83 85 81 79 77 82 86 83 82 86 94 96 92 91 88 84 83 85 87 93 94 88 89 91 89 90 92 92 93 93 91 89 89 90 88 88 87 82 84 91 94 91 87 83 73 64 64 61 57 55 54 55 55
32 48 68 61 64 76 68 60 56 60 68 71 72 64 63 70 69 54 41 42 40 38 35 28 24 22 25 29 31 33 35 37 39 41 42 44 42 43 42 44 55 66 72 75 81 87 86 83 77 75 78 85 86 78 85 92 90 90 89 87 86 87 89 94 94 85 86 92 90 89 90 91 91 90 88 88 90 90 88 89 88 84 86 91 90 82 73 69 67 64 61 57 57 59 58 56 54
36 44 49 54 65 66 62 59 54 58 64 70 70 61 60 63 59 48 47 50 43 41 35 26 26 27 29 29 31 34 36 38 40 41 42 42 41 42 41 41 45 56 71 76 80 83 82 85 80 73 75 83 83 71 75 85 87 89 91 92 91 91 91 93 95 89 87 92 91 87 88 90 90 89 89 89 91 90 88 88 87 89 91 85 77 72 69 66 63 61 58 60 66 72 73 72 67
36 41 48 54 56 58 59 57 58 61 63 71 72 63 61 58 51 47 51 51 44 42 33 28 32 32 32 30 31 34 36 38 39 40 40 40 41 41 40 41 40 47 64 71 77 79 73 75 79 78 75 76 78 73 74 78 83 89 90 92 93 93 93 94 95 90 87 88 87 84 83 88 89 90 90 89 91 89 86 86 84 87 85 75 69 69 69 65 61 59 62 68 73 77 78 77 76
36 43 55 55 50 62 66 59 63 67 68 72 69 64 62 54 48 49 51 51 47 40 31 30 33 33 32 31 32 33 35 37 38 38 38 39 39 40 39 38 38 43 57 65 73 80 74 72 77 80 77 77 80 76 74 76 81 88 90 90 86 88 92 93 92 90 88 84 81 80 79 84 88 90 90 89 91 87 81 77 75 75 71 67 65 66 64 61 60 63 67 71 73 78 74 67 66
39 47 54 54 54 71 75 70 73 71 72 73 66 61 57 51 50 50 48 51 47 36 30 29 30 31 31 31 31 32 34 35 36 36 36 38 37 38 37 35 38 41 51 62 69 76 77 75 75 77 76 78 81 76 73 75 76 80 86 86 78 78 87 90 90 90 89 86 82 81 80 84 87 88 89 88 87 85 80 74 70 67 64 65 66 67 66 65 67 70 73 74 72 75 69 59 55
40 49 51 55 55 68 76 73 72 70 73 75 66 54 49 50 51 46 43 47 42 33 29 27 28 29 29 30 30 31 33 33 33 34 35 36 36 37 36 34 37 40 46 57 65 71 75 79 76 75 76 77 81 78 73 72 72 77 86 87 77 74 83 87 89 89 89 89 86 83 82 85 87 87 86 85 85 86 84 78 75 73 71 73 76 76 72 72 76 74 74 73 68 66 57 51 47
39 51 51 53 53 62 70 65 63 67 73 78 67 49 46 51 47 42 41 42 39 34 28 25 27 28 29 30 29 31 32 31 32 33 34 35 36 35 34 33 35 39 44 51 62 68 70 77 76 73 77 77 76 75 72 70 70 77 84 84 77 76 83 87 88 88 88 90 87 85 83 83 86 86 84 82 82 83 83 81 78 78 77 74 74 74 68 68 70 70 73 67 59 55 48 45 45
35 51 55 55 55 60 63 58 60 68 73 73 60 48 50 52 47 44 43 38 35 33 27 25 27 27 29 29 29 30 30 31 31 31 32 32 33 33 32 33 34 38 43 47 57 64 65 71 73 72 75 75 74 70 67 69 71 75 74 74 76 76 79 81 86 87 84 82 82 85 80 77 81 82 81 78 76 77 76 78 75 75 75 66 62 66 65 64 64 64 66 60 54 50 46 44 43
31 45 56 66 65 63 64 64 70 75 76 68 56 58 60 54 49 48 43 36 32 30 26 25 27 27 28 27 28 29 28 29 29 29 31 30 31 32 32 32 34 37 41 45 51 57 60 66 72 75 74 72 72 69 64 67 72 73 69 69 73 72 70 72 82 87 78 70 71 81 79 72 73 74 75 73 71 73 71 71 69 69 71 63 59 62 63 62 62 61 59 58 55 49 47 46 42
29 40 54 70 65 59 62 71 78 75 75 69 61 67 67 56 55 53 43 34 31 29 27 26 27 27 26 26 27 27 27 27 28 29 29 30 30 31 32 31 33 37 40 43 47 52 54 59 66 74 81 79 75 70 65 68 74 76 70 69 72 71 68 67 77 85 80 69 64 70 75 72 70 70 70 70 69 70 69 65 63 66 66 63 61 60 60 61 62 63 62 62 57 51 49 47 44
30 42 59 75 66 61 64 69 75 70 72 70 62 66 67 60 57 52 41 34 31 28 28 26 26 26 25 26 27 27 26 26 28 29 29 30 30 30 31 31 33 36 40 43 45 48 49 53 58 65 78 83 83 82 76 73 76 77 71 69 74 72 67 65 72 79 78 74 67 65 69 69 68 65 65 66 65 65 64 62 62 63 61 61 61 60 61 61 62 65 65 63 58 53 50 48 44
39 50 71 86 78 76 75 70 66 63 71 70 62 65 67 63 56 48 40 35 32 29 28 27 26 26 25 26 27 27 26 27 28 29 29 29 30 30 30 31 33 36 41 43 44 45 47 50 53 58 67 72 77 82 79 74 72 71 69 69 71 69 66 65 68 73 74 74 74 71 68 65 64 62 61 62 61 60 60 61 60 60 59 60 62 63 63 61 61 63 64 61 58 52 47 46 42
38 50 69 84 85 83 78 73 65 63 69 67 67 69 68 66 56 46 40 36 33 30 28 27 26 25 25 26 27 27 27 28 28 28 29 29 29 30 29 30 32 36 41 41 42 44 46 49 51 55 60 63 66 69 70 70 68 65 66 67 67 64 62 62 66 71 73 76 78 75 69 66 64 62 62 60 59 59 59 58 58 59 61 63 65 65 64 61 60 60 59 57 54 49 44 43 40
27 39 48 57 73 81 76 73 70 70 69 65 70 72 70 68 57 47 42 38 34 30 29 27 27 26 26 27 27 27 27 27 28 28 29 28 28 29 28 29 31 37 40 39 42 44 46 48 49 51 56 59 62 64 65 66 64 63 64 65 63 60 58 59 63 67 70 75 78 76 73 71 68 65 64 61 59 59 56 56 57 60 63 64 66 66 64 61 60 61 58 55 53 47 42 40 38
21 33 41 40 56 79 83 76 72 72 69 68 70 68 70 69 58 48 43 40 35 31 31 27 28 28 27 28 26 27 27 27 27 26 28 27 27 28 27 28 31 36 38 39 43 44 46 48 48 50 54 57 60 64 65 64 63 63 64 63 59 55 54 54 56 58 62 67 74 78 78 75 73 69 64 61 59 56 55 58 60 64 65 65 67 66 64 61 61 64 61 58 59 49 43 40 38
18 24 34 35 49 77 86 80 74 68 69 79 77 69 72 70 58 49 44 43 38 33 32 30 29 29 27 27 26 27 28 26 25 25 26 26 26 27 26 27 30 34 37 40 44 44 47 50 49 49 53 57 60 64 66 67 65 64 63 61 58 52 49 49 49 51 54 58 68 77 78 77 77 74 68 66 62 56 56 60 63 68 69 66 67 66 65 64 61 65 66 64 64 56 50 42 35
18 17 21 27 42 61 71 80 80 69 70 79 77 70 70 66 58 52 46 43 40 34 32 31 30 30 28 26 26 26 26 26 25 24 24 25 26 26 27 28 29 34 38 41 44 45 47 50 49 49 53 58 62 66 68 68 66 64 61 58 57 51 47 47 46 47 50 54 64 74 76 77 78 77 75 72 65 58 57 60 66 72 69 66 69 68 68 69 62 63 68 67 64 60 56 45 37
16 17 21 26 37 49 59 71 72 66 69 72 72 69 67 66 60 54 50 46 42 36 32 32 30 30 29 25 26 26 25 25 25 24 24 25 26 26 27 28 30 35 38 41 45 46 47 50 52 52 55 59 65 68 68 68 66 63 60 59 57 52 47 47 47 48 49 53 64 72 75 75 76 77 78 75 68 63 63 65 72 74 70 70 73 69 67 71 68 66 69 70 65 59 56 46 38
14 15 20 25 33 47 54 58 57 61 70 69 67 69 69 71 68 61 54 48 45 37 32 34 31 30 30 27 27 26 25 25 24 24 24 25 26 26 27 28 31 35 37 42 47 47 50 55 56 55 57 61 66 68 66 65 65 61 59 61 61 55 49 48 50 50 51 56 66 72 74 75 76 76 77 77 72 69 68 70 71 71 71 71 71 68 66 71 74 71 70 70 67 60 54 44 37
15 12 17 21 28 38 44 54 62 61 65 64 63 71 75 72 73 71 60 52 52 46 36 35 34 31 29 27 27 27 25 24 23 24 24 25 26 27 28 29 30 34 39 44 49 51 54 58 58 57 60 62 64 66 64 61 61 60 58 59 63 60 53 51 50 50 54 59 65 72 75 76 79 78 77 77 75 71 70 73 72 71 72 69 69 71 69 71 75 72 69 69 68 62 52 40 35
16 12 15 23 28 30 32 53 76 72 67 68 66 76 82 71 70 78 74 62 56 51 40 34 34 32 31 28 28 28 25 24 25 25 25 26 27 28 29 30 30 34 41 45 50 55 57 59 60 60 62 62 62 62 59 59 59 60 58 57 62 62 58 56 52 51 55 60 65 70 72 75 78 79 78 76 75 72 72 76 74 71 72 69 71 77 73 74 78 73 69 67 64 60 51 39 34
16 15 15 20 25 29 33 49 75 76 68 72 70 77 86 75 67 77 86 79 66 60 51 40 34 33 34 31 29 31 28 27 28 27 27 28 29 30 30 30 30 34 42 45 49 55 59 61 60 62 63 61 59 58 57 58 58 59 59 59 61 62 59 58 56 55 57 62 66 68 70 74 75 78 80 78 75 72 74 77 74 73 76 73 74 78 73 72 76 70 67 67 64 60 50 37 34
15 16 14 17 20 29 37 44 63 67 59 65 70 79 88 81 75 78 85 88 83 80 75 62 50 39 33 30 30 31 30 31 31 28 28 29 30 31 31 32 31 35 41 45 49 53 59 62 62 64 63 59 58 57 59 59 59 64 63 59 58 58 59 59 58 59 59 62 65 69 74 73 72 76 77 75 73 70 72 74 74 77 79 75 72 75 74 71 72 68 65 65 66 64 51 38 36
15 15 14 16 19 24 33 41 56 59 54 57 68 86 95 86 87 87 83 89 90 87 84 74 65 54 38 30 31 29 30 32 31 31 29 29 32 32 32 33 32 35 40 44 47 50 58 62 63 66 62 60 60 57 61 65 68 72 66 61 61 59 62 62 59 60 60 60 63 69 76 73 70 72 70 69 69 70 73 72 73 77 78 76 73 75 75 71 70 68 62 61 63 66 58 47 40
15 15 13 12 15 22 32 39 50 59 59 56 62 85 95 87 87 84 81 92 92 89 86 72 68 69 48 32 32 30 30 31 30 31 31 30 32 33 34 33 33 36 38 43 45 48 58 64 65 69 65 63 63 62 66 71 75 75 69 69 69 65 66 65 62 62 59 58 60 65 72 73 69 67 66 66 67 71 75 73 74 77 76 76 74 75 73 66 66 66 62 63 63 63 63 59 50
16 13 10 9 11 20 30 35 43 54 56 51 50 66 86 94 89 77 80 94 93 90 89 75 69 71 55 36 33 32 30 31 31 31 31 31 32 33 35 34 34 36 37 41 43 45 57 65 67 71 70 67 68 70 73 74 75 74 71 72 71 66 65 65 63 63 60 57 58 62 67 69 68 65 63 65 68 72 75 74 75 77 75 72 70 71 70 66 66 64 64 69 65 60 65 68 60
17 10 8 10 9 12 18 22 29 33 37 48 53 52 67 84 78 68 77 92 93 90 90 84 73 67 60 44 33 32 31 31 33 33 32 32 33 34 35 35 35 37 39 40 41 45 57 68 70 71 72 71 72 75 77 75 74 73 69 68 68 64 64 65 63 62 61 58 59 62 63 65 66 64 61 65 70 72 74 74 71 74 76 71 70 72 69 66 66 63 64 69 64 60 65 69 61
15 10 9 10 9 10 11 13 17 18 24 47 57 45 48 67 70 67 79 89 92 92 90 90 81 68 65 54 37 32 34 34 34 35 34 32 34 35 35 37 36 36 39 39 40 44 56 66 70 71 72 73 74 75 76 75 74 73 67 63 64 62 64 67 62 60 61 59 62 63 62 63 66 66 63 66 70 70 73 74 71 75 77 73 73 73 67 65 67 65 65 66 66 66 68 65 58
12 10 10 10 9 9 9 10 12 14 21 32 36 29 38 68 83 81 89 92 88 90 90 89 85 72 64 56 43 33 32 36 35 33 33 33 34 35 36 38 37 37 39 40 40 45 54 63 69 72 73 75 76 75 75 74 72 72 66 59 59 61 67 66 60 64 66 63 65 67 64 64 68 71 68 66 70 70 71 74 73 75 77 75 72 69 66 68 71 68 66 66 68 69 67 64 61
11 10 11 11 11 10 10 12 11 17 25 23 20 20 28 59 83 83 85 83 75 82 92 92 88 78 64 56 53 43 32 33 35 34 33 33 34 35 37 38 36 38 40 40 41 46 53 60 66 71 73 75 77 75 75 73 72 72 65 57 57 60 68 66 63 71 73 69 70 72 71 68 69 73 70 67 70 70 72 74 73 73 75 74 72 70 69 69 70 68 66 66 67 68 67 66 64
10 12 13 14 15 14 14 14 14 20 25 20 18 20 21 41 68 73 70 65 60 68 83 87 87 83 72 66 67 60 44 34 35 37 34 33 35 35 37 39 37 37 39 38 42 50 56 59 64 69 71 75 78 75 74 73 72 71 64 59 58 59 64 65 67 73 73 72 71 71 75 73 69 70 69 70 70 68 72 74 73 73 72 70 72 73 71 68 67 65 66 68 66 66 68 66 65
10 12 15 18 19 19 19 19 18 20 20 17 18 21 27 39 53 59 59 56 53 56 65 72 74 73 72 74 72 67 55 40 34 36 35 33 35 34 35 37 37 37 38 37 40 49 56 59 63 68 69 73 77 75 73 71 71 70 64 63 62 60 61 62 66 70 69 71 69 69 72 71 68 67 67 70 68 66 73 75 73 74 72 70 72 73 70 69 66 64 69 72 68 69 69 67 68
10 13 16 20 21 22 23 20 19 19 16 15 16 21 38 52 50 46 49 48 47 49 52 57 59 58 64 69 68 67 62 49 38 34 33 34 35 33 34 37 37 36 37 38 39 45 53 58 63 67 68 71 75 74 73 69 69 69 66 65 64 61 61 63 65 68 68 68 69 71 72 70 68 67 67 68 67 67 73 77 76 76 75 72 72 75 73 71 69 67 71 72 69 71 71 69 70
9 11 13 17 17 19 21 17 17 18 15 14 16 23 40 54 52 42 39 39 39 43 46 47 51 52 55 58 59 61 62 59 51 38 30 35 36 34 35 37 37 36 37 38 39 43 50 57 62 66 68 70 71 71 71 69 67 67 67 66 66 63 62 66 68 67 67 67 68 69 69 68 67 65 66 66 64 64 70 75 76 76 76 70 69 77 76 73 74 72 71 69 68 69 69 70 70
9 9 12 15 12 13 16 15 14 14 16 15 17 28 39 43 45 41 36 35 33 37 43 46 50 52 54 54 51 52 55 58 60 48 34 33 35 35 36 37 36 35 36 37 38 42 49 56 62 66 68 70 70 69 69 68 66 67 68 67 67 65 63 65 66 63 64 64 65 66 65 67 65 62 64 67 66 66 68 72 74 74 77 77 75 77 76 74 73 72 73 71 69 70 69 69 70
9 9 12 12 9 9 12 14 14 13 19 17 15 35 48 41 41 41 38 40 36 36 44 48 49 50 54 55 48 45 49 54 61 60 47 35 34 36 35 35 36 35 35 37 39 42 46 54 60 65 68 69 69 70 68 68 67 66 68 67 67 66 64 63 62 63 64 62 63 65 64 66 66 61 63 68 69 69 69 72 74 72 75 80 79 76 75 76 73 72 75 72 69 71 71 69 70
8 8 8 7 6 8 10 14 15 14 18 16 13 34 50 47 49 46 40 41 40 39 44 50 53 50 49 52 48 46 47 51 58 65 60 44 35 36 36 35 35 34 35 38 40 42 46 52 57 61 66 67 67 69 68 68 68 67 68 68 66 65 64 61 59 62 62 60 62 66 64 65 67 63 62 67 70 70 70 71 71 70 71 75 78 77 75 75 75 75 74 70 69 71 71 67 65
7 7 6 6 7 10 11 14 16 14 17 16 11 24 39 42 44 45 42 42 42 41 42 48 54 52 47 49 51 50 49 53 59 63 66 58 42 37 37 36 36 35 36 39 41 43 45 50 54 56 60 63 62 63 64 66 67 66 67 68 66 64 63 60 58 60 62 62 63 66 64 62 64 65 64 64 65 67 71 72 71 70 71 72 75 78 75 73 75 75 71 70 72 71 68 64 61
6 6 7 7 7 9 9 11 13 13 17 18 13 22 40 45 42 41 40 38 40 46 49 52 55 53 49 48 51 54 52 54 61 63 65 66 55 43 38 37 38 38 38 41 42 43 44 48 51 52 54 57 57 56 58 62 63 62 63 66 65 63 61 59 58 59 61 63 63 64 63 60 63 68 67 64 63 65 68 71 70 69 70 72 74 74 75 75 75 74 70 69 69 67 67 67 69
6 8 8 8 6 6 7 8 9 10 15 18 18 34 54 58 53 48 42 43 50 56 57 59 62 61 56 49 47 55 57 54 60 65 63 63 60 51 43 39 39 41 42 43 44 43 44 47 48 48 50 52 51 50 53 57 58 57 58 62 64 63 61 59 57 57 58 60 61 61 60 59 63 67 66 64 66 66 66 68 68 66 65 69 72 70 72 75 75 74 72 69 68 68 68 71 74
6 7 8 9 6 7 10 10 8 7 11 12 15 39 62 62 58 56 53 59 65 63 60 62 66 67 64 56 47 49 57 55 55 60 59 58 57 52 47 45 44 46 45 45 48 49 48 49 49 46 48 51 48 46 49 53 54 54 54 57 60 61 61 59 56 55 55 56 58 60 59 59 62 65 63 64 65 66 66 68 68 65 64 67 68 67 69 71 72 75 73 69 71 74 71 69 70
Wind_Speed
6 7 5 5 4 1 3 2 0 0 1 0 1 3 2 4 9 10 11 9 7 8 8 9 9 9 9 10 11 12 12 9 6 6 7 11 23 25 21 24 23 22 21 20 19 17 16 15 14 14 14 14 13 11 11 11 10 10 10 11 10 10 10 11 11 11 12 13 14 14 14 14 13 14 15 16 17 18 17 16 17 17 16 17 17 17 16 16 16 16 17 16 16 16 16 16 15
8 8 9 9 3 2 2 1 1 1 1 1 1 3 8 8 10 10 10 9 8 9 9 10 11 13 13 12 13 15 15 15 17 13 12 23 26 23 26 26 25 24 22 20 19 18 16 16 14 13 14 14 13 11 11 11 9 9 9 9 10 10 11 11 11 12 12 13 13 14 14 13 13 14 15 16 17 17 17 16 16 16 16 17 16 16 16 16 16 16 16 16 15 15 15 16 15
10 10 9 4 5 3 0 1 1 1 1 2 3 4 9 8 10 11 10 11 10 12 11 10 11 11 12 14 14 15 14 16 22 16 14 26 20 20 29 26 25 25 23 22 20 19 17 16 15 14 13 13 12 11 11 11 10 9 9 9 9 10 11 11 11 12 12 12 13 14 14 13 13 14 15 16 17 16 16 16 16 16 17 17 15 15 15 16 15 15 15 15 15 14 15 15 15
9 10 4 4 3 1 0 0 1 1 0 3 4 2 6 10 11 12 11 12 12 12 11 10 9 9 13 15 14 14 15 15 21 18 13 22 23 27 29 24 26 24 23 22 20 19 18 17 15 14 13 12 12 11 11 10 10 10 10 10 10 11 11 11 11 11 12 12 13 14 13 13 13 14 15 15 16 16 16 17 16 16 16 16 15 15 15 15 15 15 14 15 14 14 15 15 15
9 8 2 6 0 1 1 0 1 0 0 1 5 1 4 13 12 12 11 11 13 12 11 9 9 10 13 13 10 9 13 15 19 21 17 22 28 29 26 24 26 25 23 22 21 20 19 18 15 14 13 12 11 11 11 10 10 10 10 9 10 11 11 11 11 11 12 12 12 13 12 13 13 14 15 15 15 15 16 17 17 16 16 16 15 15 15 15 15 15 15 15 15 14 14 15 15
7 2 5 5 1 1 1 1 1 1 1 3 4 5 9 13 12 12 11 12 13 12 11 11 12 13 12 12 10 10 14 15 16 21 23 24 26 26 24 25 28 26 23 22 21 20 19 17 15 14 11 11 11 12 11 10 10 9 9 9 9 9 10 10 10 10 12 12 12 12 13 13 13 14 14 15 14 15 17 17 16 15 16 17 16 16 15 15 15 15 15 15 15 14 14 14 14
8 4 3 3 1 1 1 1 1 1 1 3 2 8 12 12 11 12 12 13 11 10 11 12 14 13 12 12 11 14 19 18 17 22 26 26 25 24 22 24 27 26 23 22 21 21 19 16 15 13 11 11 11 11 11 10 9 8 8 8 8 8 9 9 9 10 12 12 11 12 13 13 13 14 14 14 14 15 17 17 16 15 16 17 18 18 16 16 15 15 16 15 15 14 14 13 13
9 4 1 1 1 1 0 1 1 0 1 2 3 9 13 12 11 11 11 11 9 10 11 14 15 13 13 13 11 15 20 22 23 26 28 26 25 23 22 23 24 24 23 23 22 21 18 16 14 12 12 11 10 11 10 9 8 8 8 8 8 7 8 9 9 10 11 12 12 12 12 12 12 13 14 14 14 15 16 17 17 15 16 18 18 18 17 16 15 15 16 16 15 14 14 13 13
3 1 1 0 1 1 0 1 0 1 3 1 3 9 12 12 10 9 11 10 9 10 12 15 15 14 16 16 13 14 20 25 28 28 26 24 24 23 22 22 22 23 23 22 22 20 17 15 14 13 13 12 11 11 10 10 9 9 8 8 8 8 8 9 10 10 11 12 13 13 12 12 12 12 14 14 14 15 16 16 16 15 16 17 17 17 16 16 16 16 16 16 15 14 14 13 13
3 2 0 1 0 1 0 1 0 1 2 3 5 11 10 11 10 9 11 12 11 11 14 16 15 17 16 16 13 13 20 26 27 26 24 23 23 22 21 21 22 24 23 22 21 19 17 15 14 14 13 13 12 12 11 10 9 9 9 9 8 9 9 10 11 11 12 12 13 13 13 13 12 13 13 13 14 15 16 15 16 16 15 15 15 16 16 16 17 17 17 16 15 14 14 13 12
3 2 0 1 1 1 1 2 2 2 4 1 2 9 8 10 10 10 11 11 11 12 16 15 15 17 17 14 10 15 23 25 25 24 23 23 22 22 21 21 22 25 24 23 21 19 18 16 15 15 14 13 12 13 13 11 9 8 9 9 9 9 10 10 11 11 12 12 14 14 13 14 13 13 14 14 14 15 16 15 15 15 15 14 15 15 16 17 17 17 17 15 15 14 13 13 13
3 3 2 1 1 1 2 4 5 3 3 3 2 4 6 8 10 11 11 11 12 14 15 13 14 15 16 13 9 17 24 23 23 23 22 22 22 21 20 21 24 26 24 22 21 20 18 16 15 14 14 13 13 14 13 11 9 8 8 8 9 10 10 11 11 11 12 13 15 15 14 14 13 14 14 14 15 15 16 16 15 14 14 14 15 16 16 16 16 16 17 15 14 14 14 14 13
3 2 2 1 1 1 1 4 7 4 2 2 4 4 5 6 9 11 11 11 12 12 13 13 14 14 14 12 11 15 19 22 22 22 22 21 21 20 21 23 24 25 23 23 21 19 18 16 15 14 13 13 13 13 12 10 9 9 8 8 9 10 10 11 11 11 12 13 16 16 15 15 15 15 15 15 16 16 16 16 15 14 14 13 15 16 16 15 15 15 15 15 14 14 14 14 13
3 1 1 1 1 1 2 3 7 7 3 3 3 4 4 2 6 10 10 12 11 11 14 15 15 14 13 12 11 11 15 22 22 21 21 20 21 20 22 22 22 25 23 22 22 20 18 17 16 15 13 12 12 11 11 10 10 10 9 9 10 10 11 12 13 13 13 15 17 17 17 16 16 16 16 16 16 16 16 16 16 14 14 13 14 16 15 15 15 14 14 14 14 14 13 13 13
4 1 1 0 1 3 1 3 6 7 4 5 4 4 4 1 4 9 10 11 10 11 14 14 13 11 13 14 11 12 18 24 22 21 21 20 21 20 22 21 21 25 23 22 22 20 19 17 17 15 13 11 10 10 11 11 11 11 11 11 11 12 12 14 14 14 14 16 17 18 18 17 17 17 17 17 16 16 16 16 16 14 14 13 13 14 13 12 13 14 13 13 13 13 12 11 11
5 2 1 1 2 2 1 4 6 6 6 6 5 4 6 4 2 5 8 8 10 12 12 11 10 10 13 14 16 20 23 24 22 22 21 21 20 19 21 21 21 22 22 22 20 20 19 18 16 14 12 11 10 11 11 11 12 12 12 12 12 13 14 15 15 15 15 15 17 18 18 18 18 18 18 17 17 16 15 15 15 14 13 13 12 12 11 10 12 13 12 12 12 12 11 10 10
5 2 1 2 2 2 2 5 5 6 9 8 7 6 7 8 1 2 6 7 9 11 10 10 11 12 14 17 23 27 25 23 22 22 21 20 18 17 18 21 22 20 19 19 18 19 18 17 16 14 14 13 11 11 11 11 13 13 12 13 13 14 15 15 16 16 17 17 18 18 19 19 18 18 18 17 17 16 15 15 15 14 13 12 11 11 11 11 12 13 12 12 11 11 10 10 9
5 2 2 3 3 1 4 5 5 7 12 10 9 9 9 11 7 5 8 8 9 9 9 12 14 15 19 23 27 27 24 23 22 21 20 18 16 15 16 18 21 20 18 17 19 19 18 18 16 15 16 13 11 11 11 11 12 12 12 13 14 15 15 15 17 17 18 19 19 19 19 20 20 19 18 17 17 15 15 15 14 14 13 11 11 11 13 13 13 13 12 12 12 11 11 9 9
4 4 4 3 3 2 5 5 8 10 13 12 9 9 8 11 10 8 9 10 10 10 10 14 17 19 22 25 26 25 24 23 21 20 19 17 16 15 15 15 17 20 20 18 18 18 19 18 16 17 16 13 11 11 12 12 12 12 11 11 12 13 14 16 17 17 18 19 19 20 20 20 20 19 18 17 16 15 15 14 14 13 12 11 12 12 12 13 13 12 12 12 11 10 9 8 6
3 4 4 3 2 2 2 5 10 11 12 13 9 9 8 10 9 8 10 12 11 9 11 15 19 21 22 22 23 24 23 21 20 19 18 17 16 16 15 14 15 18 21 19 18 18 16 17 17 16 16 15 13 11 11 11 13 12 10 11 10 11 12 14 16 15 16 18 19 20 21 19 18 18 18 17 17 16 15 15 14 12 12 13 13 12 11 12 12 11 10 9 8 7 7 8 7
2 3 5 6 3 2 2 3 9 11 10 10 9 8 9 10 8 8 11 11 9 9 11 16 20 22 22 21 21 22 21 20 19 18 18 17 16 15 14 14 14 17 20 20 19 19 16 15 16 15 15 15 15 12 10 11 13 12 10 10 11 10 12 14 15 15 16 18 19 20 21 19 17 17 17 16 16 16 16 15 14 13 13 14 13 12 12 12 11 10 8 6 4 4 4 6 8
2 4 6 8 5 6 6 5 8 9 8 8 9 10 10 8 7 9 11 9 7 8 12 18 20 21 22 21 20 20 19 18 18 18 17 17 16 15 14 14 15 16 19 18 19 22 19 15 15 14 14 14 15 13 11 12 12 13 11 11 13 13 13 14 15 15 16 16 19 19 20 19 17 16 15 15 15 15 15 15 14 14 14 14 12 11 11 10 8 6 5 2 3 4 4 4 5
1 3 6 8 8 10 10 9 9 7 8 7 6 8 10 9 8 9 9 8 8 8 12 18 19 20 22 21 19 18 18 17 17 17 17 17 16 15 15 15 15 15 17 18 19 22 21 18 17 17 16 15 14 13 13 13 12 12 10 10 13 15 14 14 14 15 16 16 18 18 18 18 17 16 14 14 15 13 13 13 13 12 11 12 10 8 8 7 6 5 4 3 4 5 4 3 4
2 4 6 8 11 14 12 11 10 6 7 5 4 6 11 11 9 8 9 10 11 10 12 18 19 20 21 19 18 18 16 16 17 17 18 17 17 16 16 15 15 15 16 17 18 20 22 21 17 16 18 18 13 12 13 14 13 11 9 10 14 15 13 13 14 15 16 16 18 17 15 15 15 15 15 14 14 13 12 12 11 10 10 11 11 9 8 8 6 5 5 4 3 5 6 5 5
2 8 7 8 11 13 11 11 10 6 4 4 6 9 11 10 9 9 10 11 13 13 14 18 19 19 18 18 18 17 16 16 17 18 18 17 17 17 16 15 15 15 16 17 18 19 22 21 17 15 16 14 12 11 13 15 15 13 12 13 14 14 14 15 15 14 15 16 18 17 14 14 15 13 13 15 13 12 12 11 10 10 10 11 12 10 9 8 6 4 3 3 3 3 5 6 5
5 10 9 10 10 9 8 10 8 4 1 1 7 11 9 8 9 10 10 9 13 15 16 18 19 19 17 16 17 16 16 17 17 17 16 16 17 17 16 16 15 15 16 16 18 19 20 23 22 20 16 13 13 12 12 13 13 12 12 14 14 15 16 15 15 13 14 17 18 17 14 14 14 12 11 14 14 12 12 11 11 11 11 11 10 8 7 6 5 4 3 3 3 1 3 4 4
10 12 12 12 11 8 7 8 6 3 2 2 7 11 7 4 3 7 9 10 14 16 17 18 18 17 16 16 15 14 15 16 17 16 15 16 15 16 16 15 15 16 16 16 17 17 17 21 23 22 22 20 17 15 12 11 12 11 10 12 14 14 15 15 14 12 12 14 16 17 16 14 14 14 13 14 14 13 13 12 12 11 10 9 8 6 5 4 4 3 3 4 3 2 3 3 4
12 14 14 11 7 7 6 8 6 4 3 2 6 11 7 2 2 8 11 11 14 17 18 18 17 16 15 16 15 12 13 15 17 15 14 15 14 14 15 14 16 16 15 16 16 17 17 19 21 20 22 24 22 21 17 13 13 12 9 10 12 12 13 15 14 12 11 12 13 13 13 12 13 14 14 14 13 13 13 13 12 10 10 8 7 6 5 4 4 3 4 4 4 4 3 2 3
17 16 11 8 5 4 1 3 4 2 2 3 4 9 6 3 7 11 11 10 13 16 18 17 16 15 14 15 13 10 12 14 15 14 14 14 14 14 15 14 16 15 15 16 15 17 17 17 19 18 19 21 22 23 20 16 14 13 11 10 11 11 12 14 13 12 12 12 11 10 9 11 13 14 14 13 12 11 12 12 10 9 9 8 6 6 5 5 4 4 3 3 3 4 3 2 3
17 18 11 7 4 2 4 3 4 3 3 6 3 4 5 6 9 11 10 10 13 16 17 16 15 14 13 14 11 11 13 13 14 14 15 15 14 14 15 15 16 15 15 15 16 17 17 16 17 17 18 18 19 19 19 18 15 13 13 11 11 11 12 14 14 12 12 11 10 10 10 12 13 13 13 11 10 10 9 9 9 8 7 7 6 5 4 3 3 3 2 1 1 3 3 1 1
7 13 10 7 4 4 5 3 5 5 3 5 2 1 5 7 10 11 9 10 13 15 16 15 14 13 13 13 12 12 12 13 15 15 16 15 15 14 14 15 15 15 15 15 16 17 16 16 16 16 17 18 17 16 18 17 14 14 14 12 12 11 12 13 13 13 12 11 11 10 10 12 12 12 11 10 10 9 8 8 8 8 7 6 5 4 4 3 3 3 1 1 3 0 3 1 2
6 8 6 6 5 5 4 5 5 5 3 4 2 2 6 8 10 11 10 10 13 14 15 15 15 14 14 13 12 12 12 14 16 17 16 15 15 14 14 15 16 15 15 15 17 17 15 15 16 17 17 17 17 16 16 15 14 15 13 12 13 12 12 13 13 13 12 11 11 10 10 11 11 10 9 9 8 7 8 8 8 7 6 5 4 3 4 2 3 4 3 2 5 3 1 1 3
8 7 6 6 6 7 6 5 5 4 4 3 4 3 5 7 11 12 11 11 12 13 14 14 15 15 14 12 12 12 12 13 15 17 18 16 15 15 14 14 15 15 15 16 16 16 17 16 16 18 17 17 17 16 16 14 14 14 13 13 13 13 13 13 13 13 12 12 11 10 11 10 9 9 8 7 6 6 6 7 8 6 4 5 3 3 5 3 3 2 3 4 5 4 4 2 3
7 8 5 5 7 9 7 5 7 9 7 6 6 5 5 7 11 12 12 12 11 12 14 14 14 13 13 12 12 13 12 12 12 16 19 17 16 16 15 14 15 15 15 16 16 16 17 16 16 18 17 17 17 16 15 14 14 14 13 12 12 12 12 13 14 13 12 12 10 10 10 9 9 8 6 5 5 5 5 7 7 5 4 5 2 3 5 4 2 1 3 4 4 3 5 4 1
5 6 4 2 6 8 8 8 11 13 10 9 10 7 6 9 12 12 12 11 11 13 13 13 14 14 13 12 12 13 13 12 12 16 19 17 17 17 16 15 15 15 16 16 15 16 16 16 17 18 17 17 16 16 15 14 14 13 13 12 11 12 12 13 14 13 12 12 11 11 10 9 8 7 5 5 5 5 6 7 6 4 5 3 2 3 3 3 3 3 3 3 3 3 5 5 3
8 3 5 5 4 5 8 8 11 13 10 10 12 8 7 11 11 11 12 12 12 13 12 12 12 13 12 12 12 13 13 12 14 18 19 17 17 17 17 16 15 15 15 16 15 15 17 17 18 17 17 17 16 16 15 13 12 13 14 12 11 11 12 13 13 13 13 12 12 12 10 9 8 8 6 4 4 5 6 6 5 5 4 2 1 2 3 3 4 4 4 3 3 4 6 5 3
10 6 6 6 6 3 6 8 8 8 7 8 9 6 8 11 11 9 10 12 12 12 13 12 12 12 12 13 13 14 13 12 15 19 18 17 18 17 17 16 16 16 16 17 16 15 16 17 17 18 17 17 16 15 15 14 12 12 14 13 12 12 13 13 12 13 13 13 13 13 11 9 9 8 7 5 3 4 7 6 5 6 4 2 2 3 4 4 2 3 2 4 5 6 8 5 3
10 9 5 4 7 4 6 12 10 6 4 4 6 6 8 11 11 7 6 10 12 12 14 14 15 13 11 13 14 14 12 12 15 17 17 17 17 18 18 17 16 17 18 18 16 16 17 17 17 17 17 16 15 14 14 14 12 12 12 11 11 12 13 13 12 12 13 14 14 13 10 10 9 8 7 6 5 5 7 5 4 5 4 3 2 3 2 2 1 1 2 4 5 7 8 4 3
10 7 6 5 7 7 7 14 16 9 4 4 7 6 6 9 10 7 4 4 5 5 8 10 14 14 11 11 13 13 12 12 13 14 16 18 18 18 17 17 17 18 19 18 17 17 17 17 18 17 17 16 15 14 14 13 13 12 11 11 12 12 12 12 12 12 14 14 14 12 10 10 9 8 7 7 6 6 7 6 5 4 4 3 1 1 1 1 1 1 3 3 5 8 6 2 3
9 6 9 5 9 11 5 10 15 9 2 5 9 4 2 5 6 6 3 1 3 4 5 7 6 9 12 11 11 14 14 13 14 14 15 17 18 18 17 17 17 18 18 18 18 18 17 18 18 17 17 16 15 15 13 13 13 10 10 12 13 12 11 12 13 14 14 14 13 12 11 11 10 8 8 8 7 6 7 8 7 5 4 3 2 1 0 1 1 1 2 2 5 10 6 1 2
8 10 12 3 8 11 8 10 10 7 4 7 8 3 1 4 5 6 4 4 2 3 6 7 5 4 9 12 11 14 14 13 15 15 15 16 18 18 18 17 18 18 18 18 18 18 18 18 18 18 17 16 16 16 14 14 13 10 11 13 11 11 12 13 14 14 13 14 13 12 11 12 11 9 9 8 8 7 6 7 8 7 4 3 3 1 1 2 1 1 2 2 4 9 9 6 3
7 12 15 10 2 9 17 16 10 5 4 7 8 4 1 4 6 7 6 5 4 5 7 7 3 6 9 13 12 12 14 13 13 14 14 16 18 19 18 18 18 18 18 18 18 18 19 19 18 18 18 16 16 16 15 14 14 12 12 13 11 11 12 11 12 13 12 13 13 12 12 12 11 10 10 9 8 9 7 7 8 7 5 4 4 2 1 1 1 2 2 2 4 6 9 9 7
8 8 9 13 8 10 17 15 11 4 4 9 11 5 1 4 8 9 9 8 8 7 6 7 6 7 9 12 12 12 13 13 13 14 15 15 17 19 19 19 19 18 18 18 18 18 20 21 19 19 18 17 17 17 16 15 14 13 13 13 11 11 11 9 11 12 11 11 11 13 12 12 12 11 11 10 9 9 8 7 7 6 5 6 4 2 2 2 2 1 1 1 3 4 6 11 10
7 3 4 9 10 6 10 8 7 5 5 10 12 10 5 4 8 12 12 9 8 7 7 8 8 8 8 10 13 13 13 14 13 14 15 16 17 19 19 19 20 19 19 19 18 19 21 22 20 19 18 18 18 18 17 16 15 14 13 13 11 10 10 10 12 13 11 11 11 12 12 12 12 11 11 11 9 10 9 7 7 5 5 6 5 3 3 3 2 2 1 1 3 3 4 8 9
9 7 7 10 14 7 10 8 5 6 5 7 12 14 7 1 5 10 11 10 9 9 10 9 9 9 7 10 13 13 12 13 14 14 14 16 18 20 20 20 19 19 19 19 19 19 21 22 20 19 19 19 19 19 18 16 15 15 13 13 12 10 10 12 14 12 11 12 12 11 12 12 11 11 11 11 10 10 10 9 9 7 5 5 5 4 5 4 3 3 2 3 3 2 4 6 6
11 11 8 8 12 8 8 7 5 4 6 6 9 11 6 0 5 7 8 9 11 11 11 10 10 10 10 11 13 13 13 12 13 14 15 17 20 20 21 21 20 19 19 18 19 20 21 21 20 20 19 19 19 19 18 16 15 15 14 13 14 12 12 14 15 13 11 12 12 11 12 12 11 11 11 11 11 10 10 10 9 8 6 5 5 5 4 5 3 3 4 4 3 2 2 4 5
12 9 6 7 9 6 3 6 5 5 6 8 8 9 7 4 5 8 8 9 12 12 10 10 11 11 12 11 8 10 13 12 12 13 15 18 21 21 20 21 20 19 19 19 19 19 20 21 21 20 19 20 20 19 18 17 16 15 14 13 14 14 15 16 15 13 13 13 12 11 12 12 11 11 11 11 12 11 10 10 9 8 7 6 5 4 3 4 3 3 5 4 2 2 2 3 4
12 6 5 5 6 5 4 5 6 6 6 6 7 8 9 6 4 10 11 9 14 15 12 13 14 12 12 8 4 7 10 12 13 12 14 16 17 19 20 20 20 21 21 21 20 19 19 21 22 21 19 21 21 19 18 17 16 15 14 14 14 15 16 16 15 14 15 14 13 13 13 12 12 12 11 11 12 11 11 10 8 8 8 8 7 6 5 5 5 4 5 4 3 3 2 3 4
10 5 6 6 5 6 7 6 6 7 7 4 5 7 7 2 3 11 15 13 15 16 14 15 16 15 13 9 7 7 9 12 13 11 13 14 14 17 21 21 21 21 21 21 21 22 21 20 22 21 20 21 21 20 19 18 17 16 15 15 14 14 14 15 15 14 14 14 13 14 14 13 12 12 12 12 11 11 11 11 9 9 8 8 8 7 6 5 5 5 4 3 4 3 3 4 4
9 6 7 6 5 7 7 7 6 7 7 7 7 6 3 2 2 9 15 13 14 15 15 16 17 18 16 13 12 9 9 10 11 13 14 13 13 17 19 20 20 20 20 20 20 23 22 21 22 22 20 21 21 20 19 18 17 16 16 16 15 14 13 14 14 13 13 13 12 13 13 12 11 11 11 12 11 11 11 11 10 9 9 9 8 8 7 6 5 6 4 4 5 4 3 4 4
9 7 9 7 7 7 5 6 5 5 7 7 9 5 1 3 3 6 11 12 13 13 13 15 15 15 16 15 15 12 10 8 6 11 16 13 15 19 18 19 21 20 21 21 20 22 23 22 23 23 21 21 21 21 20 19 18 17 17 16 15 14 13 13 14 14 14 13 12 12 12 11 10 10 11 11 10 11 11 12 11 10 10 10 10 9 8 8 7 6 6 5 5 5 5 4 4
9 8 10 9 8 6 6 7 6 7 7 4 5 3 3 4 6 6 7 8 10 11 12 14 15 14 13 14 16 14 12 8 4 7 13 14 17 20 19 20 21 21 21 21 21 22 23 23 24 23 21 20 21 21 21 20 19 18 17 17 16 15 14 13 13 13 13 13 12 12 12 11 11 11 11 9 8 9 11 12 12 11 11 10 10 10 9 9 8 7 8 7 5 6 6 5 5
5 8 10 10 9 9 7 7 9 9 6 4 4 5 7 5 6 8 8 8 9 10 12 13 14 16 15 13 15 14 12 10 5 3 6 13 18 19 20 22 22 22 22 21 21 22 23 24 24 23 22 20 20 20 20 20 19 18 18 18 17 16 15 14 13 13 13 13 12 12 12 11 10 11 11 9 9 10 11 11 11 11 12 11 10 11 10 10 10 9 9 9 7 7 8 7 7
5 6 8 10 10 10 7 6 7 7 5 6 6 7 9 6 4 8 11 10 10 10 12 11 10 13 16 13 12 12 12 11 7 2 3 8 17 18 19 23 24 23 22 22 22 22 22 24 23 23 23 22 21 20 19 19 19 18 18 18 18 17 15 14 14 13 13 12 12 11 11 11 10 10 10 10 10 11 11 11 11 11 12 11 10 11 11 10 10 9 9 10 9 8 9 8 9
12 7 4 6 8 8 6 5 6 7 6 6 6 6 6 3 4 9 11 11 11 11 11 12 10 10 12 13 11 12 12 10 7 5 3 3 12 18 19 21 23 24 23 21 22 21 21 22 22 22 22 22 21 20 19 19 19 18 17 18 18 17 16 14 14 14 13 12 12 11 11 12 11 10 11 11 11 11 12 12 11 11 12 12 11 11 11 11 11 10 10 10 9 9 10 9 9
14 10 7 7 6 6 7 5 5 6 6 6 6 5 3 2 3 9 11 10 10 10 9 9 11 10 9 12 13 10 10 10 8 7 4 2 5 14 20 21 21 23 22 21 22 22 22 21 21 22 22 22 21 20 19 19 18 17 17 18 17 17 17 15 14 14 14 14 14 13 11 12 11 10 12 11 10 12 12 12 12 12 12 12 12 11 11 12 12 11 10 10 10 11 11 9 9
10 9 8 8 6 4 5 6 7 7 6 5 5 1 3 2 0 5 8 6 7 10 9 7 8 8 7 9 12 9 8 10 10 8 7 5 3 7 13 17 21 22 20 21 21 19 19 21 21 22 23 23 22 20 20 19 18 17 17 17 17 17 16 16 14 14 15 15 16 15 14 12 11 11 12 11 10 12 12 12 12 12 12 12 13 12 12 13 13 12 12 11 10 11 11 10 9
9 9 7 7 5 5 5 6 7 7 6 6 5 1 3 2 3 2 7 9 8 8 9 7 6 6 5 6 9 11 10 11 13 11 9 7 6 5 7 10 18 22 19 19 18 15 16 18 19 21 22 23 22 20 21 21 18 17 18 17 17 17 16 16 15 15 15 15 16 16 16 14 12 12 13 12 11 11 12 12 13 12 12 13 14 13 12 13 13 13 12 11 10 11 12 11 11
Wind_Direction
180 170 176 206 176 211 13 52 227 147 272 282 149 105 145 163 118 112 110 115 105 103 98 82 70 68 85 83 82 66 52 63 67 99 108 131 145 151 150 143 141 136 134 133 131 127 124 122 120 119 115 112 110 107 107 107 107 108 111 112 117 124 122 123 124 119 116 114 110 110 109 109 110 111 111 109 107 109 112 114 114 115 114 112 111 110 109 106 102 104 105 103 101 100 100 99 98
207 212 222 209 136 47 18 332 323 58 254 115 172 139 132 140 120 112 113 113 99 102 100 93 89 88 93 87 88 76 63 70 83 87 109 129 135 140 143 143 139 135 133 133 130 125 125 123 121 117 111 112 114 117 114 113 114 113 118 125 134 136 132 130 127 123 119 115 112 111 112 116 116 113 113 112 111 112 114 115 115 116 116 114 112 111 111 108 103 105 108 105 102 101 101 100 100
233 247 242 186 58 31 38 314 317 322 260 125 149 136 127 129 113 109 107 105 106 110 103 96 88 89 95 87 85 86 86 87 97 100 118 126 129 146 148 145 138 134 132 131 129 125 126 123 121 119 116 118 119 122 120 124 131 133 137 138 141 139 137 136 131 126 121 116 114 113 115 121 120 115 114 113 113 115 116 116 115 114 115 114 111 111 111 110 106 104 107 107 103 102 101 100 101
236 263 268 99 38 17 41 27 286 299 147 139 121 85 120 118 110 111 116 119 117 109 99 93 81 81 90 92 93 93 101 99 106 112 123 132 141 152 148 142 135 130 128 128 126 125 126 124 122 122 123 124 124 124 124 134 142 145 144 138 140 137 133 133 131 128 123 119 118 118 120 123 123 121 116 113 116 118 118 117 116 114 114 113 112 112 112 113 108 104 106 106 103 101 100 100 102
230 276 37 111 57 18 333 287 265 248 196 197 116 83 123 116 120 124 127 122 110 105 105 108 98 94 90 91 100 102 111 111 113 117 121 132 138 142 140 133 127 124 124 123 123 123 124 125 125 127 128 129 128 127 127 135 142 143 138 135 133 127 126 129 131 132 128 123 122 124 124 125 126 122 116 115 118 120 120 120 119 116 115 113 113 114 115 115 109 106 105 105 104 101 100 100 103
214 306 42 85 59 68 328 289 287 73 341 316 109 142 133 122 130 128 121 110 103 109 111 104 98 99 94 91 100 106 116 118 115 118 124 130 130 131 132 126 121 124 124 120 121 121 124 127 129 130 129 130 128 126 130 135 138 134 127 125 124 125 129 131 132 133 130 125 128 130 126 127 127 121 119 119 120 123 122 123 121 116 116 117 118 118 119 116 110 108 108 107 104 101 101 101 103
183 123 41 61 53 81 349 307 6 70 346 330 138 144 132 129 130 123 119 112 110 117 114 108 106 101 94 97 97 97 108 116 118 120 125 129 128 127 126 121 121 124 121 118 119 120 125 127 127 127 126 127 126 127 128 131 128 119 116 117 122 131 132 132 132 130 131 131 133 132 126 129 128 123 124 122 123 125 125 125 122 118 119 120 121 122 121 116 111 110 109 109 105 102 102 102 105
196 147 37 51 10 345 301 321 58 274 14 334 208 142 127 130 128 124 122 118 119 121 113 111 111 103 99 103 100 101 108 112 116 120 124 127 127 124 123 120 119 118 116 116 119 122 123 122 120 121 124 124 122 121 118 120 116 111 117 121 126 129 130 133 133 132 137 138 138 135 131 131 127 125 126 126 126 126 127 128 124 121 121 122 122 122 121 115 111 110 109 108 105 103 103 104 106
213 97 107 27 314 292 292 52 85 350 37 304 194 133 129 130 125 123 121 116 118 118 112 110 109 105 104 104 102 106 108 112 118 121 124 126 124 122 121 120 118 116 115 115 117 119 118 117 118 117 118 116 113 110 110 117 118 121 126 129 130 127 130 133 133 138 139 139 141 138 136 133 128 127 128 128 126 124 128 131 128 123 123 125 124 120 119 117 114 112 109 107 105 105 106 106 106
75 56 197 328 348 344 303 116 153 77 119 229 164 133 136 132 125 122 122 122 124 119 112 109 106 107 109 107 105 110 114 119 122 123 125 123 122 121 120 121 120 117 116 116 116 116 115 115 116 116 115 115 114 110 110 114 119 126 128 129 130 127 128 129 131 137 136 136 136 134 135 133 130 129 129 128 126 128 131 133 131 126 123 123 123 119 120 120 118 115 110 107 108 109 108 107 107
144 122 137 317 344 326 204 142 113 138 148 205 138 135 136 135 129 124 126 123 123 118 114 114 112 113 112 106 106 118 123 126 124 123 124 122 121 120 121 121 117 116 116 117 116 115 115 115 115 116 116 116 115 112 112 113 119 125 126 127 125 125 126 125 130 134 133 132 130 131 134 132 130 130 131 129 130 133 133 134 133 130 124 121 124 121 121 122 120 117 112 111 111 110 109 107 106
224 125 115 307 284 253 186 135 128 164 135 109 168 150 131 139 134 132 133 124 125 124 122 123 120 118 114 110 115 126 128 127 124 123 124 123 121 120 119 114 111 114 117 116 114 113 113 113 114 115 116 116 115 114 114 116 121 122 119 119 118 119 121 122 126 131 133 132 127 129 133 132 130 130 131 130 130 131 133 136 135 130 124 122 126 123 123 123 119 117 114 115 114 111 109 106 104
262 136 145 162 234 273 104 133 138 151 121 135 191 146 124 145 142 141 136 126 126 124 122 121 123 122 115 116 125 131 130 126 126 126 125 123 120 121 117 111 110 111 113 114 112 112 113 114 115 115 117 117 117 116 117 119 120 118 113 111 112 114 119 123 123 127 130 125 123 128 133 132 131 130 131 129 128 129 133 137 134 128 124 122 123 121 122 122 121 119 115 115 115 113 111 108 106
259 208 172 166 179 102 91 156 148 142 137 184 187 129 122 138 146 149 138 127 125 128 128 128 128 120 118 126 132 135 132 130 130 128 126 123 122 121 115 113 113 111 112 116 115 115 117 117 117 119 120 117 118 116 115 116 116 114 110 111 113 115 118 120 122 125 123 120 125 132 132 131 132 130 128 127 126 128 132 135 133 130 126 120 117 120 122 124 125 123 117 117 116 115 113 111 109
260 271 93 6 61 98 130 203 164 142 148 179 162 110 115 118 165 153 138 128 128 130 128 131 133 124 135 142 138 139 136 134 133 130 127 124 124 121 116 115 114 113 114 119 121 123 123 122 121 120 120 120 121 116 110 109 109 107 104 109 114 116 116 115 118 119 119 126 131 130 129 130 129 126 125 125 124 125 130 135 134 131 127 121 118 119 122 124 124 122 119 119 118 117 115 113 110
262 283 69 24 60 86 150 186 173 145 155 174 137 109 127 129 179 142 135 138 131 129 129 137 141 138 147 141 132 137 136 136 134 131 129 124 123 122 120 116 112 112 114 118 123 127 127 127 126 123 123 124 120 116 111 107 103 102 104 108 112 113 113 114 114 116 123 130 128 124 125 128 124 123 124 123 122 122 126 131 131 130 127 125 120 120 121 122 123 122 121 119 119 118 116 115 112
267 282 58 282 76 103 192 183 183 143 147 159 143 155 145 126 142 161 148 142 126 131 133 136 143 141 139 132 131 135 135 136 134 132 129 125 126 126 123 118 116 116 115 120 126 127 126 125 124 125 128 123 118 116 111 105 100 103 107 109 110 110 112 112 112 119 128 125 121 123 127 126 121 121 122 121 121 120 123 126 127 126 126 125 121 123 124 125 125 123 121 118 115 113 112 112 113
270 269 271 301 45 124 227 203 174 140 146 155 158 172 153 134 151 169 148 130 130 140 134 137 143 133 125 127 132 135 136 138 136 135 132 131 133 131 127 124 124 123 118 122 130 130 129 128 125 128 131 126 124 119 112 110 107 110 112 111 111 112 115 114 114 121 124 120 120 126 128 125 122 121 121 120 119 120 123 127 128 127 127 126 123 124 125 126 127 124 120 115 113 111 110 108 105
278 291 294 358 35 214 232 207 164 148 150 150 158 174 158 140 147 156 145 139 144 144 140 141 133 122 123 131 136 137 139 141 140 139 138 138 138 132 130 129 127 125 122 125 133 133 131 132 132 131 131 130 129 121 116 118 117 118 120 119 116 116 119 117 119 124 122 121 125 128 127 124 124 123 123 121 118 120 123 128 131 130 130 129 128 126 125 127 125 122 117 113 116 120 123 130 129
302 311 313 1 349 215 218 191 160 145 146 142 152 175 159 143 148 155 148 142 145 148 148 140 129 129 134 138 139 140 142 143 143 143 141 138 135 132 131 131 127 125 124 128 133 135 132 131 133 134 133 135 132 124 124 125 121 119 118 119 119 119 118 116 122 127 123 125 129 129 127 126 125 124 124 121 120 120 123 128 131 132 131 130 129 126 124 124 122 119 118 120 125 135 147 159 175
341 356 330 336 349 82 88 145 138 129 136 137 145 164 152 146 154 154 150 142 143 153 147 136 135 139 140 141 143 143 145 146 148 147 142 138 136 132 131 131 128 123 123 127 129 132 133 129 134 136 135 141 136 128 133 131 124 120 116 115 121 126 120 116 121 123 122 125 129 129 128 128 125 124 124 121 121 122 123 124 125 127 127 128 126 125 126 123 121 123 126 131 136 159 176 165 174
33 20 356 356 27 93 111 107 115 125 125 128 146 154 147 148 153 153 154 142 139 147 137 137 141 142 142 144 145 146 148 150 151 148 142 139 136 133 133 132 126 123 124 127 129 132 135 134 137 134 133 143 138 135 138 132 126 120 118 118 123 127 123 123 123 124 125 127 130 130 130 129 125 125 125 124 125 126 125 123 125 129 130 129 126 128 133 129 131 143 153 178 212 210 210 200 189
68 46 30 37 65 102 121 122 130 135 118 129 159 149 141 145 147 155 152 130 135 145 138 140 141 142 143 145 146 148 150 152 150 147 144 140 138 138 138 135 128 127 126 127 133 137 138 139 140 133 133 145 142 141 139 131 125 118 120 130 128 125 125 129 128 130 132 132 132 131 132 129 126 129 131 131 131 134 135 130 130 134 138 136 136 146 152 148 157 181 198 225 232 212 187 166 163
120 89 72 73 85 103 121 133 135 121 108 146 206 150 138 141 142 150 139 128 144 153 143 140 140 143 144 147 148 148 149 150 150 149 146 144 144 143 140 134 128 129 129 131 135 136 136 139 144 137 135 143 140 136 134 131 130 125 131 135 128 125 127 130 130 132 133 137 136 132 134 130 131 137 137 138 138 143 146 139 137 140 147 144 145 157 159 156 159 175 208 230 207 185 166 151 152
139 106 96 87 85 100 121 126 118 108 112 196 196 145 127 124 127 132 132 138 149 152 148 141 142 146 147 151 149 147 151 151 152 152 150 149 147 142 137 132 129 132 134 135 135 135 137 138 142 135 131 133 127 126 129 132 134 131 133 133 129 130 133 133 129 129 132 139 138 132 134 133 134 139 138 140 143 148 147 147 151 151 155 147 143 155 164 163 153 146 180 195 166 169 172 168 169
111 114 110 108 102 100 116 106 92 93 49 263 150 129 114 117 124 125 135 147 146 149 150 144 147 151 151 154 149 150 155 153 154 154 151 148 143 140 136 135 137 138 138 137 136 139 141 139 139 137 136 131 124 129 126 125 130 126 127 131 132 132 137 140 131 129 134 138 139 136 140 139 136 141 139 141 150 155 152 155 158 159 164 154 146 157 167 168 169 163 150 147 152 139 146 149 141
106 114 97 104 121 124 124 103 94 110 39 1 132 124 120 132 140 132 144 154 148 151 150 147 152 152 154 154 149 156 155 152 153 151 151 146 142 142 139 141 140 137 138 136 135 139 141 138 138 140 142 140 136 139 132 126 134 133 129 129 130 129 134 141 135 134 137 136 138 138 144 146 144 150 146 145 154 157 157 160 163 167 168 161 159 164 169 172 176 177 135 129 141 119 136 160 137
92 100 80 77 98 112 117 110 127 143 63 340 132 123 127 178 175 142 152 159 155 155 150 152 156 153 157 152 150 159 154 151 151 153 154 146 148 148 143 145 139 137 138 133 135 141 140 136 137 138 141 145 146 147 148 150 149 146 142 131 131 133 132 134 134 138 143 137 133 131 139 144 144 147 145 148 156 158 160 162 166 169 162 162 165 156 155 149 142 135 117 119 138 156 162 196 167
106 104 85 75 71 84 128 134 156 144 107 232 160 125 131 156 145 144 156 166 164 158 152 155 155 155 158 148 153 162 151 151 152 156 156 148 155 153 146 147 139 137 136 135 142 143 138 135 136 138 140 146 147 147 150 151 147 145 145 135 135 141 138 136 134 137 142 137 126 120 127 133 138 143 144 149 153 155 157 155 156 155 147 149 144 132 128 125 130 127 113 107 147 191 164 184 190
125 123 125 128 111 182 236 212 164 131 148 209 206 134 136 129 140 152 162 171 171 160 154 158 155 158 157 147 159 160 150 155 158 161 156 153 161 154 150 149 141 138 135 141 147 139 136 137 137 139 142 143 141 141 143 143 144 144 143 142 141 140 139 137 135 135 137 136 128 123 125 128 134 138 140 144 144 145 146 142 140 134 130 129 129 129 110 106 128 114 105 120 216 219 160 189 192
150 138 145 156 162 187 213 219 158 139 178 201 194 143 151 140 148 162 167 176 179 163 158 162 156 159 154 151 164 157 156 163 162 161 155 160 164 157 156 150 141 138 139 145 143 136 139 142 139 139 141 138 136 138 138 141 144 142 142 144 142 140 138 136 137 138 137 137 133 128 129 131 132 134 136 137 138 141 139 135 131 126 125 120 126 127 93 96 102 61 20 283 311 266 137 116 77
191 159 169 185 168 150 191 239 192 159 172 196 218 167 151 153 158 166 170 182 187 168 163 164 159 160 155 158 167 156 162 166 163 162 159 167 165 158 161 150 142 143 144 144 139 139 141 140 140 139 139 136 135 137 137 138 138 140 143 141 140 142 140 138 139 139 137 137 135 131 131 131 132 133 134 133 133 137 135 130 127 126 125 119 122 106 86 81 66 37 16 0 349 13 123 138 110
204 201 202 182 159 152 174 219 229 213 163 187 246 183 149 163 164 168 174 185 192 173 168 167 160 161 158 163 167 156 165 169 166 164 163 169 164 158 161 152 145 145 144 141 140 141 140 140 142 140 140 137 136 137 135 134 134 139 141 138 142 145 143 141 140 138 137 137 134 133 132 132 133 129 132 141 134 134 135 129 126 120 114 121 120 94 84 50 33 39 31 18 3 355 305 285 150
203 210 214 172 158 160 162 167 202 211 184 187 217 190 162 165 165 172 179 187 191 177 173 170 164 164 161 168 167 157 167 172 167 163 164 168 161 156 160 156 148 143 144 144 144 143 139 143 144 139 139 137 137 139 135 134 138 141 140 139 142 142 143 141 140 141 139 137 137 139 137 135 136 132 137 140 124 134 134 121 123 111 110 123 96 81 88 38 7 82 54 12 353 349 315 318 254
228 196 200 184 163 153 151 157 174 185 189 194 199 195 172 162 168 175 179 192 194 183 177 172 171 168 164 172 167 158 169 174 165 163 165 165 159 157 158 156 148 147 149 146 145 144 139 139 137 136 140 139 140 141 138 139 143 144 140 140 141 141 143 140 140 143 142 142 146 146 141 139 144 143 140 119 102 120 123 117 122 109 110 119 49 68 84 43 34 59 59 26 10 0 317 315 319
299 236 203 209 191 142 148 157 157 171 194 202 194 191 174 167 175 180 178 189 196 189 183 176 176 171 169 177 166 161 173 172 163 164 167 164 160 158 156 155 153 151 149 145 146 143 137 137 137 140 143 141 143 144 143 146 149 148 144 145 147 144 143 143 144 146 146 148 150 148 145 150 155 151 147 127 101 116 124 128 136 119 101 99 70 69 77 66 41 35 37 9 353 321 296 275 281
300 285 238 185 175 147 144 141 136 170 202 198 188 183 184 179 182 195 186 184 194 195 188 181 178 176 177 179 166 164 176 171 163 166 169 165 160 159 157 159 160 151 146 147 148 145 141 142 143 145 146 146 149 151 151 153 154 152 149 151 151 147 147 151 151 150 150 149 152 152 150 158 158 155 156 147 128 125 129 133 140 129 113 128 116 73 83 90 35 33 29 324 311 297 291 263 242
268 277 285 154 164 180 142 126 132 195 218 182 195 189 192 191 185 209 214 188 192 192 190 187 180 180 185 181 167 165 175 170 163 167 170 166 163 163 160 163 165 153 150 153 153 150 147 148 150 149 150 153 155 157 157 155 155 155 155 156 151 149 154 157 155 154 149 150 158 157 154 162 160 157 160 154 146 131 130 139 140 124 113 131 98 47 78 115 58 35 356 316 302 289 296 301 162
259 263 271 245 165 147 134 130 142 183 221 177 195 192 191 195 185 202 239 212 205 189 199 203 187 180 186 185 168 166 177 169 166 173 172 168 168 166 162 167 169 156 154 158 157 154 151 152 155 152 153 158 159 160 159 156 156 155 156 158 155 155 160 159 155 153 149 152 159 157 161 171 164 159 165 158 156 153 146 145 143 126 113 125 119 340 214 165 114 26 352 334 313 297 293 323 174
253 246 258 252 147 152 155 136 142 158 185 159 169 174 210 207 189 200 207 70 355 346 306 275 232 190 188 191 174 169 178 171 170 178 174 171 172 168 166 171 169 160 159 162 161 159 155 155 157 155 158 160 159 160 159 157 155 149 144 153 160 159 157 157 153 151 153 156 158 159 170 175 163 163 171 161 162 174 161 149 158 166 142 142 178 204 297 327 31 351 312 281 313 312 303 332 213
239 245 261 281 138 164 146 124 131 140 149 138 141 131 291 234 209 209 175 95 45 300 283 276 292 270 205 193 184 174 178 176 175 179 177 176 173 168 169 173 170 164 164 166 166 163 157 158 159 159 160 159 159 160 160 156 154 147 137 144 155 150 146 152 152 153 157 160 160 163 171 172 164 167 171 170 168 171 166 163 170 170 154 171 195 221 293 271 240 205 267 291 324 323 324 338 332
235 236 250 272 232 132 124 133 138 140 167 150 154 166 254 239 227 216 173 132 191 218 244 238 241 280 231 195 189 183 179 179 179 180 178 177 173 168 171 175 172 169 171 171 170 165 158 159 160 159 161 161 160 160 161 160 156 150 142 143 150 147 147 153 156 159 161 163 164 165 169 169 169 170 171 176 172 169 181 180 166 156 158 187 210 235 246 232 218 205 250 319 324 322 332 338 339
238 223 237 263 255 133 131 153 154 154 192 168 177 189 161 213 230 220 177 167 203 196 216 227 205 228 223 197 191 189 183 178 181 185 179 178 176 170 172 178 176 173 176 173 171 167 158 158 161 159 161 161 160 160 161 163 160 158 155 154 155 153 153 159 162 161 163 169 163 160 167 170 172 172 172 176 170 170 185 183 167 161 175 190 201 221 230 250 252 231 218 322 316 311 339 342 340
240 285 340 298 282 185 166 190 184 189 180 163 184 200 201 202 207 202 175 172 203 195 202 221 216 214 212 208 198 189 188 179 181 187 180 179 179 174 175 181 180 175 176 175 173 168 157 157 162 161 161 161 161 162 161 162 163 163 166 165 164 163 157 158 166 164 168 176 161 156 167 171 175 175 172 176 171 171 178 178 179 183 194 194 188 205 222 238 212 156 167 298 319 317 338 337 335
247 292 315 313 308 263 202 221 232 217 199 174 190 203 221 227 164 177 168 172 200 207 206 207 216 213 204 216 206 191 191 182 181 187 181 181 180 177 177 181 184 177 174 176 173 166 157 159 163 161 163 163 162 164 163 164 165 164 168 168 168 171 162 158 167 167 167 171 160 159 170 169 176 179 173 175 172 175 180 177 186 197 200 181 181 219 215 203 191 156 195 251 268 284 328 323 318
252 275 279 281 295 273 214 234 260 248 240 223 200 201 219 262 144 166 167 181 200 205 205 200 206 209 202 210 208 197 193 182 184 187 184 185 182 180 179 182 185 177 174 178 174 167 161 161 163 163 165 164 163 166 165 165 167 167 171 170 167 168 163 158 162 162 163 167 162 166 172 170 177 178 173 179 177 180 187 181 184 197 201 178 187 227 208 186 205 205 221 238 244 239 284 308 307
245 264 283 276 278 281 268 272 286 287 258 238 225 211 212 215 171 178 188 192 191 189 194 198 199 206 203 202 207 210 201 185 186 191 187 186 184 182 180 183 183 174 176 181 171 165 164 164 164 165 167 166 164 167 168 166 167 171 174 172 166 161 161 160 158 159 163 169 170 169 170 172 182 179 172 180 182 181 190 188 182 187 198 195 195 222 213 200 229 233 221 219 222 236 245 284 291
233 239 267 263 254 250 246 249 254 264 256 238 240 233 229 237 182 187 201 195 185 184 188 191 193 201 200 190 196 230 221 193 186 192 186 183 184 182 182 186 183 175 179 180 169 164 166 166 166 165 166 167 166 168 170 169 168 172 174 173 170 163 163 165 164 165 167 172 175 173 174 180 187 185 178 182 188 187 188 189 188 191 199 198 191 207 217 218 233 220 195 203 221 222 236 268 278
223 214 248 246 235 229 223 225 229 244 249 230 239 248 239 241 137 183 193 192 190 189 187 185 188 193 190 186 192 218 236 207 189 191 186 183 187 185 183 185 182 177 178 176 169 165 166 167 167 167 168 167 168 169 171 172 171 173 173 172 175 171 168 169 170 173 175 178 180 175 177 184 188 189 186 185 188 191 188 186 195 200 198 196 195 205 216 218 219 200 176 203 225 207 225 257 272
204 203 230 232 240 234 220 223 225 241 248 217 211 234 218 125 121 184 185 187 190 187 187 185 187 189 184 188 197 205 232 221 195 191 190 185 184 184 183 179 177 178 176 177 174 166 164 168 168 169 169 168 169 170 172 174 173 174 175 174 177 177 174 173 175 179 181 183 183 179 179 183 188 192 193 192 189 192 192 187 195 202 195 200 208 208 214 213 200 190 191 213 217 207 224 251 268
193 218 233 229 240 244 240 236 221 239 249 211 193 207 187 130 157 185 182 182 182 182 185 183 186 188 182 188 197 201 219 230 212 195 193 187 177 181 183 174 173 178 178 180 177 164 161 167 169 170 170 170 171 172 173 175 175 176 177 177 178 180 179 178 182 186 185 185 187 187 186 184 189 194 194 197 195 194 197 191 193 202 201 205 211 209 211 216 206 198 215 226 225 232 228 235 260
185 203 231 236 241 247 267 276 277 283 281 238 188 151 76 112 137 153 171 169 163 165 172 175 180 182 179 189 195 199 208 218 229 204 193 186 177 179 181 173 174 181 184 184 174 163 162 165 168 171 172 173 172 173 175 176 177 178 178 180 181 182 184 184 188 189 186 188 188 188 190 187 191 198 194 195 196 193 198 196 192 199 205 205 207 205 205 214 213 207 224 231 221 236 242 237 250
178 188 215 229 249 260 264 267 275 283 289 270 217 131 112 132 132 137 157 159 153 157 161 167 175 177 178 188 194 196 202 204 211 226 203 186 179 182 180 175 180 184 186 184 174 166 164 164 169 173 173 175 175 174 177 177 178 179 179 181 184 185 188 188 190 190 188 190 187 184 189 188 191 197 192 193 201 196 198 199 194 201 208 205 204 204 205 215 217 207 223 233 216 227 251 245 242
242 203 201 205 230 257 272 268 256 253 255 253 224 155 144 158 147 155 169 169 166 168 162 157 167 179 181 185 191 193 195 197 192 196 263 193 177 182 183 178 182 186 186 182 173 168 165 165 172 176 175 177 178 176 177 178 179 180 180 183 186 188 191 193 193 191 189 189 186 182 186 189 193 201 194 190 198 200 202 206 202 206 212 209 206 205 205 218 221 211 223 237 224 229 248 244 242
256 270 270 222 216 224 246 268 264 250 252 253 223 173 151 154 157 166 173 174 173 172 164 157 167 186 186 181 187 193 193 195 187 180 244 218 176 181 186 182 182 183 184 178 171 170 170 171 176 179 178 179 180 180 179 179 181 183 183 184 188 189 192 198 196 191 190 192 191 187 190 194 198 205 201 196 202 204 205 209 208 210 214 210 211 210 206 214 221 219 228 237 232 237 246 245 247
248 269 280 255 230 208 211 225 250 259 267 266 239 190 125 66 147 163 175 181 166 157 160 165 174 190 192 182 183 190 192 191 183 179 199 223 186 184 185 186 182 179 179 176 174 177 176 177 180 179 178 180 182 183 181 181 185 187 186 185 188 191 193 198 199 196 195 196 197 192 192 199 198 197 198 200 207 206 203 208 210 215 217 211 212 214 211 214 220 221 224 232 236 239 242 244 249
221 237 247 241 222 205 215 214 221 245 268 282 275 175 92 12 301 154 162 149 111 126 159 183 187 190 192 187 184 182 189 193 181 175 184 186 194 191 189 189 179 172 175 172 174 181 178 177 182 179 176 181 186 185 180 184 188 189 188 187 189 193 195 198 200 201 200 200 201 196 196 203 202 200 201 203 209 208 206 209 211 215 219 215 214 215 215 216 219 222 224 231 236 233 234 239 245
213 214 233 250 228 204 232 229 210 219 248 269 282 62 96 347 328 96 115 104 100 131 162 190 201 193 196 200 194 183 184 195 187 177 182 182 175 186 209 201 171 165 174 171 167 177 178 173 180 181 177 181 190 188 181 184 190 190 189 190 193 194 197 200 200 201 202 203 202 198 199 204 205 205 204 205 213 213 211 213 213 215 219 218 216 216 219 218 216 221 225 227 232 231 236 243 244